This demonstration page uses our WeatherBlox Daily Observations layout. Learn more.

41.55636, -103.73856

Hourly Observations for August 12, 2019

Temp ( °F °C ) Dew Point ( °F °C ) Humidity (%) Winds ( mph kmh ) Pressure ( in mb ) Visibility ( mi km ) Precip ( " mm )
12:53 am 00:53 Clear 64 17.8 63 17.2 96 96 E 8 13 29.83 1010 10 16.09344 0 0
1:53 am 01:53 Mostly Clear 63 17.2 63 17.2 100 100 ESE 7 11 29.8 1009 9 14.484096 0 0
2:07 am 02:07 Mostly Cloudy 63 17.2 63 17.2 100 100 SE 9 15 29.77 1008 7 11.265408 0 0
2:15 am 02:15 Cloudy with Mist and Fog 63 17.2 63 17.2 100 100 SE 8 13 29.77 1008 1.75 2.816352 0 0
2:22 am 02:22 Cloudy with Fog 63 17 63 17 100 100 SSE 9 15 29.8 1009 0.25 0.402336 0 0
2:29 am 02:29 Mostly Cloudy with Fog 63 17.2 63 17.2 100 100 SSE 8 13 29.77 1008 0.25 0.402336 0 0
2:53 am 02:53 Mostly Cloudy with Fog 63 17.2 63 17.2 100 100 SE 6 9 29.77 1008 0.25 0.402336 0 0
3:53 am 03:53 Mostly Cloudy with Fog 62 16.7 62 16.7 100 100 ESE 3 6 29.8 1009 0.25 0.402336 0 0
4:53 am 04:53 Mostly Cloudy with Fog 60 15.6 60 15.6 100 100 WNW 7 11 29.83 1010 0.25 0.402336 0 0
5:00 am 05:00 Mostly Cloudy with Mist and Fog 61 16 61 16 100 100 WNW 10 17 29.83 1010 1 1.609344 0 0
5:04 am 05:04 Mostly Cloudy with Mist and Fog 60 15.6 60 15.6 100 100 WNW 12 19 29.83 1010 4 6.437376 0 0
5:15 am 05:15 Partly Cloudy 60 15.6 60 15.6 100 100 WNW 14 22 29.83 1010 10 16.09344 0 0
5:53 am 05:53 Clear 60 15.6 59 15 96 96 WNW 17 28 29.88 1012 10 16.09344 0 0
6:38 am 06:38 Mostly Cloudy 61 16.1 60 15.6 97 97 WNW 16 26 29.88 1012 10 16.09344 0 0
6:53 am 06:53 Cloudy 61 16.1 60 15.6 97 97 WNW 15 24 29.91 1013 10 16.09344 0 0
7:53 am 07:53 Partly Cloudy 65 18.3 61 16.1 87 87 WNW 10 17 29.94 1014 10 16.09344 0 0
8:11 am 08:11 Mostly Cloudy 65 18.3 61 16.1 87 87 WNW 13 20 29.91 1013 10 16.09344 0 0
8:20 am 08:20 Partly Cloudy 66 19 61 16 83 83 WNW 10 17 29.88 1012 10 16.09344 0 0
8:27 am 08:27 Mostly Cloudy 66 18.9 61 16.1 84 84 WNW 9 15 29.91 1013 10 16.09344 0 0
8:53 am 08:53 Cloudy 68 20 62 16.7 81 81 WNW 10 17 29.94 1014 10 16.09344 0 0
9:53 am 09:53 Partly Cloudy 73 22.8 62 16.7 69 69 W 12 19 29.94 1014 10 16.09344 0 0
10:53 am 10:53 Sunny 77 25 61 16.1 58 58 W 12 19 29.94 1014 10 16.09344 0 0
11:53 am 11:53 Sunny 79 26.1 61 16.1 54 54 W 12 19 29.94 1014 10 16.09344 0 0
12:53 pm 12:53 Sunny 82 27.8 59 15 46 46 WNW 14 22 29.91 1013 10 16.09344 0 0
1:53 pm 13:53 Sunny 84 28.9 57 13.9 40 40 WNW 9 15 29.91 1013 10 16.09344 0 0
2:53 pm 14:53 Sunny 85 29.4 53 11.7 33 33 NNW 7 11 29.88 1012 10 16.09344 0 0
3:53 pm 15:53 Sunny 87 30.6 55 12.8 34 34 NE 6 9 29.85 1011 10 16.09344 0 0
4:53 pm 16:53 Sunny 88 31.1 50 10 27 27 N 10 17 29.85 1011 10 16.09344 0 0
5:53 pm 17:53 Sunny 85 29.4 55 12.8 36 36 E 12 19 29.85 1011 10 16.09344 0 0
6:53 pm 18:53 Sunny 80 26.7 59 15 49 49 ESE 9 15 29.88 1012 10 16.09344 0 0
7:53 pm 19:53 Sunny 72 22.2 61 16.1 68 68 ENE 6 9 29.91 1013 10 16.09344 0 0
8:53 pm 20:53 Clear 68 20 57 13.9 68 68 ENE 8 13 29.94 1014 10 16.09344 0 0
9:53 pm 21:53 Clear 66 18.9 58 14.4 75 75 NE 7 11 29.94 1014 10 16.09344 0 0
10:53 pm 22:53 Clear 64 17.8 56 13.3 75 75 E 5 7 29.97 1015 10 16.09344 0 0
11:53 pm 23:53 Clear 64 17.8 58 14.4 81 81 ENE 9 15 29.97 1015 10 16.09344 0 0

Powered by AerisWeather